EW9744 Weather Reports


Display with metric or nautical units.
time (UTC)temp
F
wind
direction
speed
MPH
gust
MPH
rain 1hr
in
rain 24hr
in
rain mn
in
humidity
%
barometer
mb
20260901160031 56 298 5.0 13.0 0.00 0.00 0.00 80 1012.9
20260901154530 56 282 5.0 10.0 0.00 0.00 0.00 80 1012.9
20260901153032 56 282 5.0 10.0 0.00 0.00 0.00 81 1012.9
20260901151532 55 275 6.0 13.0 0.00 0.00 0.00 83 1012.9
20260901150032 54 292 2.0 6.0 0.00 0.00 0.00 84 1012.7
20260901144531 54 141 1.0 4.0 0.00 0.00 0.00 84 1012.6
20260901143106 54 124 0.0 3.0 0.00 0.00 0.00 84 1012.6
20260901141530 54 4 2.0 4.0 0.00 0.00 0.00 83 1012.5
20260901140036 55 9 2.0 6.0 0.00 0.00 0.00 81 1012.3
20260901134530 55 354 1.0 3.0 0.00 0.00 0.00 80 1012.2
20260901133030 56 31 2.0 11.0 0.00 0.00 0.00 80 1012.0
20260901131529 56 99 2.0 6.0 0.00 0.00 0.00 80 1012.0
20260901130029 57 262 1.0 4.0 0.00 0.00 0.00 78 1011.8
20260901123031 58 192 2.0 7.0 0.00 0.00 0.00 77 1011.7
20260901121533 57 255 4.0 12.0 0.00 0.00 0.00 78 1011.8
20260901120107 56 305 5.0 10.0 0.00 0.00 0.00 80 1011.7
20260901114529 56 293 4.0 7.0 0.00 0.00 0.00 79 1011.8
20260901113040 57 317 2.0 4.0 0.00 0.00 0.00 79 1011.7
20260901111532 57 353 1.0 5.0 0.00 0.00 0.00 77 1011.7
20260901110030 57 302 2.0 4.0 0.00 0.00 0.00 76 1011.6
20260901104647 57 294 3.0 7.0 0.00 0.00 0.00 74 1011.8
20260901101608 58 293 2.0 6.0 0.00 0.00 0.00 65 1011.7
20260901093030 59 164 0.0 3.0 0.00 0.00 0.00 64 1011.8
20260901091607 58 249 1.0 5.0 0.00 0.00 0.00 64 1011.7
20260901090031 59 307 4.0 5.0 0.00 0.00 0.00 62 1011.5
20260901084531 59 298 4.0 5.0 0.00 0.00 0.00 61 1011.8
20260901083028 59 305 2.0 5.0 0.00 0.00 0.00 59 1011.9
20260901081533 59 271 3.0 6.0 0.00 0.00 0.00 59 1011.9
20260901080147 59 286 4.0 6.0 0.00 0.00 0.00 59 1011.8
20260901074607 60 283 2.0 4.0 0.00 0.00 0.00 58 1011.7
20260901073032 60 299 2.0 6.0 0.00 0.00 0.00 56 1011.6
20260901071529 61 290 4.0 5.0 0.00 0.00 0.00 54 1011.5
20260901070032 62 300 4.0 7.0 0.00 0.00 0.00 54 1011.5
20260901064532 62 284 6.0 7.0 0.00 0.00 0.00 54 1011.6
20260901063029 61 275 6.0 8.0 0.00 0.00 0.00 54 1011.8
20260901061532 61 280 5.0 7.0 0.00 0.00 0.00 53 1011.9
20260901060032 61 289 4.0 6.0 0.00 0.00 0.00 51 1011.9
20260901053032 62 291 4.0 6.0 0.00 0.00 0.00 49 1011.8
20260901051607 64 281 4.0 6.0 0.00 0.00 0.00 47 1011.9
20260901050155 64 289 2.0 6.0 0.00 0.00 0.00 45 1012.0
20260901044531 63 323 3.0 6.0 0.00 0.00 0.00 46 1012.0
20260901043029 64 306 4.0 5.0 0.00 0.00 0.00 45 1011.7
20260901041531 65 293 4.0 6.0 0.00 0.00 0.00 43 1011.6
20260901034532 66 285 6.0 9.0 0.00 0.00 0.00 43 1011.2
20260901033033 67 274 7.0 9.0 0.00 0.00 0.00 42 1011.1
20260901030108 68 272 7.0 9.0 0.00 0.00 0.00 43 1011.0
20260901024532 68 276 7.0 10.0 0.00 0.00 0.00 43 1011.0
20260901023030 67 275 7.0 9.0 0.00 0.00 0.00 43 1010.9
20260901021530 68 273 7.0 9.0 0.00 0.00 0.00 42 1010.9
20260901014530 70 270 5.0 7.0 0.00 0.00 0.00 39 1011.0
20260901013031 73 276 4.0 5.0 0.00 0.00 0.00 37 1011.1
20260901011530 76 292 2.0 4.0 0.00 0.00 0.00 37 1011.2
20260901010026 79 301 3.0 4.0 0.00 0.00 0.00 36 1011.2
20260901004604 83 318 2.0 4.0 0.00 0.00 0.00 34 1011.4
20260901003034 85 330 2.0 4.0 0.00 0.00 0.00 31 1011.5
20260901001529 84 34 0.0 5.0 0.00 0.00 0.00 28 1011.6
20260901000030 82 2 2.0 6.0 0.00 0.00 0.00 29 1011.8
20260831234530 81 29 3.0 7.0 0.00 0.00 0.00 28 1011.9
20260831233029 81 23 4.0 8.0 0.00 0.00 0.00 29 1012.0
20260831231531 80 27 4.0 7.0 0.00 0.00 0.00 30 1012.2
20260831230032 81 34 4.0 8.0 0.00 0.00 0.00 29 1012.4
20260831223031 81 37 5.0 12.0 0.00 0.00 0.00 30 1012.7
20260831221607 80 35 5.0 9.0 0.00 0.00 0.00 30 1012.9
20260831214530 79 44 5.0 13.0 0.00 0.00 0.00 32 1013.4
20260831213104 78 56 5.0 11.0 0.00 0.00 0.00 33 1013.6
20260831204528 76 49 5.0 12.0 0.00 0.00 0.00 37 1014.0
20260831203029 77 37 6.0 14.0 0.00 0.00 0.00 37 1014.2
20260831201532 75 50 4.0 12.0 0.00 0.00 0.00 39 1014.6
20260831194532 74 44 5.0 12.0 0.00 0.00 0.00 40 1015.0
20260831193031 72 51 6.0 14.0 0.00 0.00 0.00 42 1015.2
20260831191531 71 27 8.0 14.0 0.00 0.00 0.00 44 1015.5
20260831184530 69 34 6.0 12.0 0.00 0.00 0.00 51 1015.9
20260831183031 68 30 6.0 13.0 0.00 0.00 0.00 54 1016.2
20260831181530 67 34 5.0 10.0 0.00 0.00 0.00 56 1016.4
20260831180030 66 36 4.0 9.0 0.00 0.00 0.00 57 1016.5
20260831174531 65 28 5.0 11.0 0.00 0.00 0.00 58 1016.6
20260831173031 64 28 5.0 10.0 0.00 0.00 0.00 60 1016.6
20260831171532 64 24 4.0 9.0 0.00 0.00 0.00 61 1016.7
20260831170031 63 20 4.0 8.0 0.00 0.00 0.00 63 1016.8
20260831164603 63 28 4.0 7.0 0.00 0.00 0.00 64 1016.9
20260831163029 62 18 4.0 7.0 0.00 0.00 0.00 66 1016.9
20260831161530 61 18 3.0 7.0 0.00 0.00 0.00 67 1017.1